TimeEDT,TemperatureF,Dew PointF,Humidity,Sea Level PressureIn,VisibilityMPH,Wind Direction,Wind SpeedMPH,Gust SpeedMPH,PrecipitationIn,Events,Conditions,WindDirDegrees,DateUTC
12:53 AM,75.0,73.0,94,29.95,10.0,Calm,Calm,-,N/A,,Clear,0,2012-10-08 04:53:00
1:53 AM,75.0,72.0,90,29.95,10.0,Calm,Calm,-,N/A,,Clear,0,2012-10-08 05:53:00
2:53 AM,75.0,72.0,90,29.94,10.0,NE,3.5,-,N/A,,Clear,40,2012-10-08 06:53:00
3:53 AM,73.9,72.0,93,29.93,10.0,NE,4.6,-,N/A,,Clear,40,2012-10-08 07:53:00
4:53 AM,73.9,72.0,93,29.93,10.0,ENE,4.6,-,N/A,,Clear,70,2012-10-08 08:53:00
5:53 AM,73.9,72.0,93,29.95,10.0,NE,3.5,-,N/A,,Clear,50,2012-10-08 09:53:00
6:53 AM,73.9,73.0,97,29.97,10.0,ENE,4.6,-,N/A,,Clear,70,2012-10-08 10:53:00
7:53 AM,75.0,73.0,94,29.99,9.0,NE,3.5,-,N/A,,Clear,50,2012-10-08 11:53:00
8:53 AM,78.1,75.0,90,30.00,10.0,ENE,4.6,-,N/A,,Clear,60,2012-10-08 12:53:00
9:53 AM,80.1,75.0,85,30.01,10.0,ENE,3.5,-,N/A,,Clear,70,2012-10-08 13:53:00
10:53 AM,82.9,75.0,77,30.01,10.0,SE,5.8,-,N/A,,Scattered Clouds,140,2012-10-08 14:53:00
11:53 AM,86.0,73.9,67,30.00,10.0,East,9.2,-,N/A,,Scattered Clouds,100,2012-10-08 15:53:00
12:53 PM,86.0,72.0,63,29.98,10.0,Variable,4.6,-,N/A,,Scattered Clouds,0,2012-10-08 16:53:00
1:53 PM,88.0,71.1,57,29.96,10.0,Variable,3.5,-,N/A,,Partly Cloudy,0,2012-10-08 17:53:00
2:53 PM,90.0,66.9,46,29.93,10.0,Calm,Calm,-,N/A,,Clear,0,2012-10-08 18:53:00
3:53 PM,88.0,69.1,53,29.91,10.0,NNW,9.2,-,N/A,,Overcast,330,2012-10-08 19:53:00
4:53 PM,86.0,73.0,65,29.92,10.0,NNW,8.1,-,N/A,,Scattered Clouds,340,2012-10-08 20:53:00
5:53 PM,78.1,68.0,71,29.93,10.0,SE,16.1,25.3,0.00,Rain-Thunderstorm,Light Thunderstorms and Rain,140,2012-10-08 21:53:00
6:00 PM,77.0,69.8,78,29.93,10.0,SE,18.4,25.3,0.00,Rain-Thunderstorm,Light Thunderstorms and Rain,140,2012-10-08 22:00:00
6:21 PM,73.4,69.8,88,29.95,1.2,ESE,11.5,25.3,0.15,Thunderstorm,Overcast,120,2012-10-08 22:21:00
6:27 PM,73.4,69.8,88,29.97,0.8,SE,13.8,19.6,0.20,Rain,Rain,140,2012-10-08 22:27:00
6:41 PM,71.6,69.8,94,29.98,0.2,ESE,5.8,-,0.71,Fog-Rain,Heavy Rain,110,2012-10-08 22:41:00
6:47 PM,71.6,69.8,94,29.99,0.5,ENE,9.2,-,0.95,Fog-Rain,Heavy Rain,70,2012-10-08 22:47:00
6:48 PM,71.1,69.1,93,29.98,0.5,ENE,9.2,-,0.98,Fog-Rain,Heavy Rain,60,2012-10-08 22:48:00
7:03 PM,71.6,69.8,94,29.98,1.8,East,5.8,-,0.29,Rain,Heavy Rain,90,2012-10-08 23:03:00
7:13 PM,71.6,69.8,94,29.98,2.5,Calm,Calm,-,0.34,Rain,Rain,0,2012-10-08 23:13:00
7:17 PM,71.6,69.8,94,29.98,4.0,NNE,3.5,-,0.35,Rain,Light Rain,30,2012-10-08 23:17:00
7:53 PM,73.9,72.0,93,29.96,9.0,Calm,Calm,-,0.35,Rain,Light Rain,0,2012-10-08 23:53:00
8:53 PM,73.9,72.0,93,29.98,10.0,East,3.5,-,0.01,,Overcast,100,2012-10-09 00:53:00
9:53 PM,73.9,72.0,93,30.01,10.0,NE,5.8,-,N/A,,Clear,50,2012-10-09 01:53:00
10:53 PM,73.9,72.0,93,30.03,10.0,NE,5.8,-,N/A,,Clear,50,2012-10-09 02:53:00
11:53 PM,73.9,72.0,93,30.01,10.0,NE,4.6,-,N/A,,Clear,40,2012-10-09 03:53:00